Starlink 30275

operational
NORAD ID: 57667 Int'l Des: 2023-124 Owner: SPXS Country: US Constellation: starlink
LEOCIRCULAR

About Starlink 30275

Description loading...

Live Position

Loading 3D Globe...

Upcoming Passes

Altitude History

Altitude vs Time

uPlot chart will show altitude changes over time

Two-Line Element Set

1 57667U 23124E 25306.07931457 .00011008 00000-0 38360-3 0 9998
2 57667 53.1600 79.8089 0000977 87.5414 272.5698 15.30168732124025
Epoch: Nov 2, 2025 • Age: 46 hours

Current Status

Altitude 476.4 km
Velocity 7.63 km/s
Sub-Earth Point 29.10°N, 59.13°E
Launch Date Aug 22, 2023
Age 2.2 years
Type internet

Technical Details

Classification Payload
Mass 730.00 kg
Dry Mass 700.00 kg
Total Mass 730.00 kg
Length 0.30 m
Diameter 4.10 m
Span 29.00 m
Shape Box + pan
Manufacturer SPXS
Bus Type Starlink V2M
Phase Status In Orbit
Owner/State SPXS/US

Large Constellations

Loading constellations...